Probability
0 0 0 0 0 0 0 0 0 0 0 0 0 0 0 0 0 3 3 6 6 13 13 10 13 13 13 19 19 23 19 23 19 16 23 23 23 16 19 23 23 29 19 19
0 0 0 0 0 0 0 0 0 0 0 0 0 0 0 0 0 0 0 6 10 13 10 13 13 16 16 23 16 19 19 29 26 26 19 23 19 26 26 26 16 19 29 26
0 0 0 0 0 0 0 0 0 0 0 0 0 0 0 0 0 0 3 6 16 16 10 10 13 16 23 23 26 23 26 29 35 35 26 35 29 35 26 19 13 16 32 29
0 0 0 0 0 0 0 0 0 0 0 0 0 0 0 0 0 0 3 10 13 13 16 10 10 16 16 16 29 29 29 39 42 32 29 32 32 32 26 29 23 26 26 32
0 0 0 0 0 0 0 0 0 0 0 0 0 0 0 0 0 0 3 3 10 13 16 13 13 16 16 19 29 29 35 39 39 35 32 26 29 29 23 26 29 29 26 26
0 0 0 0 0 0 0 0 0 0 0 0 0 0 0 0 0 0 0 0 6 6 13 10 13 10 19 26 29 39 39 48 52 45 35 32 32 32 29 32 32 26 26 26
0 0 0 0 0 0 0 0 0 0 0 0 0 0 3 0 0 0 0 6 10 10 13 16 16 16 23 32 35 42 42 45 48 45 39 35 35 29 29 32 32 35 35 35
0 0 0 0 0 0 0 0 0 0 0 0 0 0 0 0 0 6 6 6 10 10 10 13 19 19 26 32 39 45 42 45 42 39 39 42 39 35 35 35 35 35 35 35
0 0 0 0 0 0 0 0 0 0 0 0 0 0 0 6 3 6 6 6 6 10 16 19 16 19 23 29 29 42 48 42 42 45 45 42 42 45 39 35 42 35 32 32
0 0 0 0 0 0 0 0 0 0 0 0 0 3 3 3 6 10 10 10 10 10 16 16 19 19 19 23 26 39 45 48 42 45 45 42 45 48 45 42 39 35 32 39
0 0 0 0 0 0 0 0 0 0 0 0 0 3 3 10 10 13 13 13 16 16 19 16 26 23 26 26 26 32 48 45 45 55 52 52 48 45 48 42 42 39 39 39
0 0 0 0 0 0 0 0 0 0 0 0 0 3 6 6 10 10 13 13 19 23 19 23 23 26 26 26 26 35 39 45 52 52 48 48 42 39 42 45 45 42 39 42
0 0 0 0 0 0 0 0 0 0 0 0 0 3 10 10 10 13 6 13 19 19 19 23 23 23 23 29 29 35 35 48 52 48 48 48 45 39 39 42 42 35 39 39
0 0 0 0 0 0 0 0 0 0 0 0 3 6 10 10 10 13 16 19 19 23 19 23 19 19 26 26 26 29 32 39 45 48 48 48 48 48 39 35 39 42 39 19
0 0 0 0 0 0 0 0 0 0 0 0 3 6 10 10 16 13 13 23 19 13 16 16 16 16 16 19 19 23 32 42 39 42 45 45 45 35 32 35 35 29 23 23
0 0 0 0 0 0 0 0 0 0 0 6 10 10 10 10 10 16 16 19 10 19 16 13 16 19 16 23 23 26 23 35 39 39 42 45 35 32 32 32 26 23 23 19
0 0 0 0 0 0 0 0 3 3 6 3 6 13 6 13 10 16 13 16 23 16 13 13 19 19 23 26 23 19 19 23 23 39 35 39 35 32 29 29 23 23 19 19
0 0 0 0 0 0 0 3 3 3 6 3 3 10 13 16 16 23 19 19 19 19 16 16 23 19 19 19 23 16 19 19 26 29 35 35 29 23 23 26 23 23 19 19
0 0 0 0 0 0 3 3 0 3 6 10 10 10 16 13 19 23 19 35 29 23 19 23 26 29 29 23 26 29 29 29 26 26 29 32 26 26 26 23 19 19 16 16
0 0 0 0 0 0 0 0 0 3 3 6 10 10 10 19 19 16 23 35 32 29 26 23 29 26 29 23 19 19 19 23 23 19 23 26 19 26 23 23 19 16 13 13
0 0 0 0 0 0 0 0 6 0 3 10 10 6 16 13 13 16 19 19 26 26 26 32 29 32 29 19 16 19 19 19 23 26 19 23 19 23 23 19 19 16 13 13
0 0 0 0 0 0 3 6 6 6 3 13 13 10 16 19 16 16 23 19 29 23 19 23 32 26 26 26 26 19 19 16 19 23 19 23 19 19 19 19 19 16 13 16
0 0 0 0 0 0 0 3 3 3 6 16 16 16 16 13 16 16 19 13 16 26 19 19 19 26 23 19 19 19 19 19 23 23 19 13 19 16 19 19 19 13 13 13
0 3 3 0 0 0 3 10 10 10 16 16 16 10 13 10 10 10 10 10 13 19 23 23 19 19 16 19 19 16 16 23 19 23 19 16 13 16 16 19 19 19 13 16
3 3 3 3 0 6 6 6 10 16 19 13 6 6 3 0 3 3 10 10 10 19 13 10 6 10 13 16 16 13 13 13 23 19 16 19 16 16 16 19 19 23 16 16
0 0 3 6 3 6 3 0 10 10 3 3 0 0 0 3 3 3 3 3 6 13 6 6 6 6 13 13 10 10 13 13 13 16 19 19 19 19 16 13 6 3 3 6
Height
5903 5906 5907 5909 5910 5911 5912 5913 5913 5914 5915 5915 5914 5915 5914 5914 5913 5913 5912 5911 5910 5910 5908 5907 5906 5905 5904 5904 5903 5902 5901 5900 5899 5898 5898 5897 5896 5895 5894 5894 5893 5893 5892 5892
5901 5903 5906 5906 5908 5909 5910 5911 5912 5913 5914 5914 5913 5914 5914 5914 5913 5913 5912 5911 5911 5910 5909 5908 5907 5907 5906 5905 5904 5903 5902 5901 5900 5899 5899 5898 5897 5896 5895 5894 5893 5893 5893 5892
5898 5902 5902 5904 5905 5907 5908 5910 5911 5912 5912 5912 5912 5913 5913 5913 5913 5913 5912 5911 5911 5910 5910 5909 5908 5907 5906 5906 5905 5904 5903 5902 5901 5900 5899 5899 5898 5897 5896 5895 5894 5893 5893 5892
5895 5897 5899 5901 5902 5904 5906 5908 5909 5910 5911 5911 5912 5912 5912 5912 5912 5912 5912 5911 5911 5910 5910 5909 5909 5908 5907 5907 5905 5905 5904 5903 5902 5901 5900 5899 5898 5897 5896 5895 5894 5893 5892 5892
5892 5894 5896 5898 5900 5902 5904 5906 5906 5907 5908 5909 5910 5910 5911 5910 5910 5911 5911 5910 5910 5910 5909 5909 5908 5908 5908 5907 5906 5905 5904 5903 5902 5900 5899 5898 5898 5897 5896 5895 5894 5893 5892 5891
5888 5890 5892 5895 5897 5899 5901 5903 5903 5904 5905 5906 5907 5908 5908 5908 5908 5909 5909 5909 5909 5908 5908 5908 5908 5907 5907 5906 5906 5905 5904 5903 5902 5901 5899 5898 5897 5896 5895 5894 5893 5892 5891 5890
5883 5886 5889 5891 5893 5896 5897 5899 5900 5901 5901 5903 5904 5904 5906 5906 5906 5907 5907 5907 5907 5907 5907 5907 5907 5906 5906 5906 5905 5905 5904 5903 5902 5901 5899 5898 5897 5896 5895 5893 5892 5891 5890 5888
5877 5881 5885 5887 5889 5891 5893 5895 5897 5898 5898 5900 5900 5900 5903 5904 5904 5904 5904 5905 5905 5905 5905 5905 5905 5905 5905 5905 5904 5904 5903 5902 5901 5900 5899 5898 5896 5895 5894 5893 5891 5890 5889 5887
5872 5877 5881 5883 5885 5887 5889 5890 5893 5894 5894 5895 5896 5897 5899 5901 5901 5901 5901 5902 5902 5903 5903 5903 5903 5903 5903 5903 5903 5902 5901 5901 5900 5899 5898 5897 5895 5894 5893 5892 5890 5889 5887 5886
5867 5871 5875 5878 5879 5882 5884 5886 5888 5889 5890 5891 5892 5894 5896 5897 5898 5899 5898 5898 5900 5901 5901 5901 5901 5901 5902 5901 5901 5900 5899 5899 5898 5897 5896 5895 5894 5893 5892 5891 5889 5888 5886 5885
5861 5865 5869 5871 5873 5876 5879 5881 5882 5883 5885 5887 5888 5892 5892 5893 5894 5895 5896 5896 5897 5898 5899 5899 5899 5899 5900 5900 5899 5898 5897 5897 5896 5895 5894 5893 5892 5891 5890 5888 5887 5886 5884 5883
5855 5858 5862 5866 5869 5871 5873 5875 5877 5879 5880 5882 5884 5889 5888 5889 5891 5892 5893 5893 5894 5895 5896 5896 5896 5897 5897 5897 5896 5896 5895 5894 5893 5892 5892 5890 5889 5888 5887 5886 5885 5883 5882 5881
5849 5852 5856 5859 5864 5865 5867 5869 5871 5873 5875 5876 5878 5883 5883 5885 5887 5888 5889 5890 5891 5891 5892 5892 5892 5893 5893 5894 5894 5893 5893 5892 5891 5890 5889 5888 5887 5886 5885 5883 5882 5881 5879 5878
5843 5846 5849 5853 5856 5858 5860 5863 5865 5867 5869 5870 5873 5876 5878 5880 5882 5884 5885 5886 5887 5887 5887 5888 5888 5889 5890 5890 5890 5890 5889 5889 5888 5887 5886 5885 5884 5883 5882 5880 5879 5878 5877 5875
5836 5839 5842 5846 5850 5853 5855 5857 5860 5861 5863 5865 5867 5870 5873 5876 5878 5879 5880 5881 5882 5882 5883 5884 5884 5885 5885 5886 5886 5886 5886 5885 5884 5884 5883 5882 5881 5880 5878 5877 5876 5875 5873 5872
5830 5833 5836 5840 5843 5846 5849 5852 5854 5856 5858 5860 5862 5864 5867 5870 5871 5873 5875 5876 5876 5878 5878 5879 5879 5880 5881 5881 5882 5882 5881 5881 5880 5880 5879 5878 5877 5876 5874 5873 5872 5870 5868 5867
5823 5826 5829 5833 5837 5839 5842 5846 5848 5850 5851 5854 5856 5860 5861 5863 5865 5867 5868 5870 5872 5873 5874 5874 5875 5875 5876 5876 5876 5876 5876 5876 5876 5875 5874 5873 5872 5871 5869 5868 5867 5865 5863 5861
5817 5820 5823 5826 5830 5832 5838 5839 5840 5843 5845 5847 5850 5853 5855 5857 5859 5861 5863 5864 5866 5867 5869 5869 5870 5870 5871 5871 5871 5871 5871 5870 5870 5870 5869 5868 5867 5865 5864 5863 5862 5860 5858 5856
5811 5814 5816 5819 5821 5824 5829 5831 5833 5835 5838 5841 5844 5846 5848 5851 5853 5855 5857 5859 5861 5862 5863 5864 5864 5864 5865 5865 5865 5865 5865 5865 5864 5864 5863 5862 5861 5860 5859 5858 5856 5855 5853 5851
5804 5807 5809 5811 5814 5817 5822 5824 5825 5828 5830 5833 5836 5839 5842 5844 5847 5849 5851 5853 5855 5856 5857 5858 5858 5858 5859 5859 5858 5858 5859 5859 5858 5858 5857 5856 5855 5854 5853 5852 5850 5849 5847 5845
5797 5800 5802 5804 5806 5810 5815 5817 5819 5821 5823 5827 5829 5832 5835 5837 5840 5843 5844 5846 5848 5849 5850 5851 5851 5852 5852 5852 5852 5852 5852 5852 5852 5851 5850 5849 5848 5847 5847 5845 5844 5842 5840 5839
5791 5794 5796 5798 5801 5806 5808 5810 5813 5815 5817 5819 5823 5825 5827 5831 5833 5835 5838 5840 5841 5842 5843 5844 5845 5845 5846 5846 5846 5845 5846 5845 5844 5844 5843 5842 5841 5840 5839 5838 5837 5835 5834 5832
5784 5787 5789 5792 5796 5798 5801 5804 5806 5808 5811 5813 5816 5818 5821 5824 5826 5828 5831 5833 5834 5834 5836 5837 5838 5838 5838 5838 5838 5839 5838 5838 5837 5837 5836 5835 5835 5834 5833 5832 5830 5829 5827 5825
5778 5780 5783 5785 5788 5790 5793 5796 5799 5802 5805 5808 5810 5812 5814 5817 5819 5821 5823 5825 5826 5827 5829 5830 5831 5831 5831 5831 5831 5831 5831 5830 5830 5829 5828 5827 5826 5826 5825 5824 5823 5821 5820 5818
5772 5774 5776 5779 5781 5784 5787 5790 5793 5796 5799 5802 5804 5806 5808 5809 5812 5814 5815 5817 5818 5819 5821 5822 5823 5823 5824 5824 5824 5823 5823 5822 5821 5820 5819 5818 5818 5817 5816 5816 5815 5813 5812 5810
5766 5768 5771 5772 5775 5778 5781 5784 5787 5790 5792 5795 5797 5799 5800 5802 5804 5806 5808 5808 5809 5811 5813 5813 5814 5815 5815 5816 5816 5816 5815 5814 5813 5812 5811 5810 5810 5809 5808 5807 5806 5805 5804 5802
Wind_Speed
14 13 11 9 8 7 7 6 3 2 2 0 2 3 4 5 7 7 8 8 9 9 10 10 10 10 10 10 10 10 10 10 10 10 9 9 8 7 7 6 6 6 6 5
16 13 12 12 11 10 8 7 5 4 3 2 3 3 2 3 4 5 6 7 8 9 9 8 8 9 9 9 8 9 9 8 8 8 8 9 8 8 7 6 6 6 5 4
15 14 13 13 13 12 11 9 7 6 5 4 5 4 4 3 2 2 3 5 7 8 7 7 7 7 8 8 7 7 8 7 7 8 8 8 8 7 7 7 5 4 4 4
17 16 16 16 15 14 13 10 9 9 9 7 6 6 5 5 4 2 2 3 4 5 6 6 5 5 6 7 7 7 7 7 6 6 7 7 6 6 6 6 5 4 4 4
18 18 18 17 15 14 13 13 12 12 13 12 9 9 7 7 7 5 4 4 3 3 4 4 4 3 4 6 6 6 6 6 5 5 5 6 6 6 7 6 6 5 5 5
19 20 19 17 16 16 15 15 15 14 14 14 12 11 9 9 10 8 6 5 4 3 3 3 3 2 3 4 5 5 5 6 5 6 6 7 7 7 7 7 7 6 5 5
21 21 20 19 18 17 17 16 16 16 15 14 13 14 12 9 10 9 7 6 5 3 3 3 3 2 2 3 4 5 5 6 6 6 6 6 6 6 7 7 7 6 6 6
22 21 20 20 20 18 18 18 18 18 16 14 14 15 11 9 10 10 9 8 5 5 5 3 2 3 3 3 5 5 6 6 7 7 7 6 6 6 6 7 7 7 7 7
24 22 21 22 21 21 21 20 19 19 18 17 16 15 13 11 11 10 9 9 6 6 5 4 3 4 4 4 5 6 6 7 7 8 7 7 7 6 6 6 7 6 7 7
24 24 23 23 23 23 23 22 22 23 21 20 18 16 14 12 10 10 8 7 7 7 7 6 5 5 5 5 6 6 7 7 8 8 8 8 7 7 7 7 8 7 7 7
24 25 25 25 25 24 24 24 24 23 22 22 20 18 16 14 12 10 9 8 8 8 8 8 7 6 6 7 7 7 8 8 8 8 8 8 8 8 8 8 8 8 8 9
25 25 26 26 25 25 25 23 23 24 24 23 22 21 18 16 14 12 11 10 10 9 9 8 8 7 7 8 8 8 9 9 9 9 9 9 8 9 9 9 9 9 9 9
26 26 27 27 27 27 26 25 25 26 25 25 25 22 19 18 15 14 13 11 10 11 10 10 9 9 10 10 10 10 10 10 10 9 9 9 9 9 9 10 10 10 10 10
28 28 28 28 27 27 27 26 25 26 26 27 26 24 22 19 17 16 14 13 13 12 11 11 10 11 12 12 12 12 11 11 10 10 10 10 10 10 10 10 10 11 11 11
29 29 29 29 28 28 27 27 26 27 27 28 26 26 23 21 19 17 17 17 15 15 14 13 13 13 14 14 14 14 13 13 12 11 11 12 12 13 12 12 12 13 13 14
31 30 30 29 29 29 28 28 28 28 28 28 27 25 24 21 20 19 18 18 17 16 16 15 15 14 15 15 16 16 15 14 14 13 13 13 14 15 15 14 15 15 16 16
33 31 30 30 30 31 30 29 29 30 29 29 28 27 26 25 23 22 20 20 20 19 18 17 16 16 16 17 17 16 15 15 15 15 15 16 15 16 16 16 16 17 17 17
31 31 31 31 31 32 29 29 29 29 29 30 31 29 27 25 24 22 21 21 20 19 19 19 19 18 18 18 18 17 17 18 17 17 17 18 18 18 16 17 18 18 18 19
31 31 30 31 32 32 29 29 29 29 29 29 29 29 29 27 25 24 23 23 20 20 20 19 20 20 20 20 20 19 19 19 19 19 20 20 19 19 19 19 20 20 21 21
31 31 31 31 32 33 29 30 30 29 30 29 29 30 29 28 28 27 26 24 22 21 21 21 22 21 21 21 21 22 21 20 21 22 22 21 21 21 21 21 21 22 21 21
30 31 31 31 31 31 28 29 30 31 31 30 29 29 30 30 28 28 27 26 24 23 22 23 23 22 22 23 23 22 22 22 23 23 23 22 22 22 22 22 22 22 23 23
30 30 31 32 31 30 28 28 29 30 29 29 28 28 29 29 28 28 27 25 25 25 24 24 25 24 23 24 24 24 23 23 23 23 24 24 24 24 24 24 24 24 24 24
30 30 31 32 31 29 28 27 28 28 28 28 28 28 27 27 27 28 27 26 26 26 25 25 26 25 25 24 24 23 24 23 24 25 26 26 26 25 25 25 25 25 25 25
29 29 31 32 32 31 29 26 26 27 26 26 25 26 26 26 26 28 28 27 27 27 27 27 27 25 24 24 24 25 25 25 25 26 27 27 27 26 26 26 26 26 26 26
27 28 30 30 31 30 29 28 28 27 27 26 27 27 28 27 27 28 28 28 27 27 27 28 28 26 26 26 26 27 27 27 27 27 28 28 28 27 27 27 27 27 27 26
26 26 26 28 29 29 27 26 27 27 26 26 27 28 28 27 28 29 29 28 27 26 27 27 27 28 28 28 28 28 28 28 28 28 28 28 29 29 28 28 29 29 29 29
Wind_Direction
211 211 205 199 202 193 196 198 196 169 143 42 9 26 39 39 40 43 39 39 42 43 43 46 51 55 57 57 56 58 61 62 62 61 60 60 55 53 55 58 56 54 57 69
218 215 208 209 211 210 217 216 204 197 210 264 323 326 345 31 34 38 31 35 41 44 43 43 47 55 58 58 57 54 56 58 59 57 55 50 45 46 48 48 50 50 46 50
223 216 215 217 214 218 228 225 215 219 236 260 293 306 292 311 348 23 12 24 36 42 42 43 45 52 58 52 53 52 48 46 47 47 45 42 40 43 45 44 40 35 28 28
219 215 216 220 221 221 221 220 216 224 233 254 270 284 267 274 283 299 320 354 10 24 31 33 41 52 45 43 46 43 41 40 40 42 40 35 36 39 39 33 23 20 15 13
218 215 217 220 217 217 221 221 221 227 232 238 246 261 267 263 273 275 275 296 321 358 13 19 25 32 36 38 36 32 31 32 30 27 25 22 19 20 20 22 17 11 5 358
219 218 220 220 217 215 219 223 223 228 234 239 240 250 260 270 273 268 265 280 300 328 352 3 14 12 21 23 20 22 17 14 16 11 5 4 3 3 6 6 4 359 359 357
221 221 222 221 217 216 220 222 224 227 233 239 243 248 252 265 270 268 270 267 277 290 305 322 352 358 356 357 357 359 358 353 350 350 352 351 352 357 1 359 354 351 348 345
225 222 222 223 222 222 226 228 231 233 236 240 243 249 254 262 263 264 259 254 260 277 281 299 335 339 331 328 332 336 339 339 339 340 343 336 337 341 348 351 352 352 349 340
227 223 221 223 224 224 225 230 235 234 239 243 246 247 247 255 262 266 254 247 256 271 268 279 307 314 310 310 315 323 324 326 326 326 328 328 327 327 331 340 343 343 341 338
230 226 220 223 226 226 226 229 232 232 238 243 243 243 247 253 265 275 270 254 263 267 260 270 287 298 301 300 294 301 311 314 315 314 311 314 318 319 316 321 328 330 330 330
228 228 221 221 224 224 224 226 229 231 238 242 243 245 247 254 256 263 265 265 267 264 261 265 271 276 281 285 285 292 301 303 302 299 299 303 306 308 309 310 312 315 317 321
228 228 225 222 224 223 224 226 229 233 236 240 244 248 249 253 258 259 261 264 262 254 258 262 262 267 271 278 285 290 295 298 296 294 294 299 301 301 302 305 306 309 313 316
227 227 226 223 219 221 224 227 230 233 237 240 244 248 250 251 254 259 264 264 259 255 255 261 260 265 273 279 285 290 292 293 293 292 289 294 297 295 297 302 304 306 310 312
225 226 227 226 222 222 226 226 228 231 236 239 243 247 249 252 256 258 261 262 262 265 255 261 264 269 273 278 281 289 288 289 290 289 286 290 292 293 294 296 298 300 302 302
225 225 226 227 224 224 227 228 230 232 234 238 244 247 248 251 253 254 259 263 261 263 261 262 264 269 276 276 280 283 284 288 286 282 283 282 283 285 287 290 295 296 297 297
227 227 227 229 227 225 228 230 231 232 234 237 242 246 250 252 252 251 255 260 260 260 262 264 268 269 272 275 279 281 283 283 280 280 280 280 280 284 287 290 293 293 294 295
227 229 231 232 229 229 229 229 231 231 234 237 240 244 247 250 252 252 253 255 259 264 265 267 266 268 270 274 276 277 279 278 278 279 280 280 281 284 286 288 292 291 295 296
228 230 232 233 231 230 230 230 232 234 235 237 240 243 246 249 250 252 254 257 259 263 264 266 266 267 267 269 272 273 276 277 279 278 279 279 282 285 286 289 290 292 293 295
229 231 233 233 231 230 230 232 235 236 236 238 240 242 245 246 246 247 251 255 258 260 262 264 265 268 267 268 268 270 273 276 277 277 276 277 280 283 284 287 289 291 292 293
228 230 233 233 232 231 232 234 237 240 241 239 240 242 244 245 244 245 249 253 256 258 259 262 264 265 266 267 269 268 270 273 275 277 276 277 279 280 280 283 286 289 291 291
228 229 232 234 235 235 236 238 239 241 242 241 242 244 246 247 248 248 249 251 255 258 258 260 261 263 264 264 269 271 271 273 275 276 276 276 276 277 278 280 284 286 288 290
228 230 232 236 237 237 236 239 241 242 243 240 241 243 245 246 248 249 249 251 255 257 259 261 263 265 265 266 269 272 273 275 276 277 276 275 275 275 277 279 282 285 288 290
229 231 234 237 239 238 236 237 240 242 243 242 240 240 242 244 245 245 246 250 253 257 260 261 262 266 268 270 271 273 274 274 274 275 277 277 276 276 278 279 282 284 285 287
231 234 236 235 236 236 235 236 239 240 241 241 242 243 245 245 247 246 247 250 252 254 258 261 263 265 267 268 269 270 272 274 275 276 276 276 275 274 276 278 280 283 284 285
233 237 237 237 236 235 237 238 238 240 242 241 242 248 251 249 248 249 250 250 253 254 257 261 262 264 267 269 270 270 273 275 276 276 275 273 274 274 274 276 279 281 283 284
231 236 237 235 234 235 236 237 239 241 243 244 247 250 251 251 252 249 250 254 253 254 257 261 263 266 268 269 269 270 273 275 275 275 275 273 273 274 274 275 278 279 282 284